Weather History for Miles City, MT

Change the Weather History Date:

Saturday, June 22, 2013

  Actual Average Record
Temperature  
Mean Temperature 58 °F 68 °F  
Max Temperature 65 °F 81 °F 103 °F (1954)
Min Temperature 51 °F 55 °F 42 °F (1942)
Degree Days  
Heating Degree Days 7 2  
Month to date heating degree days 58 78  
Since 1 June heating degree days 58 78  
Since 1 July heating degree days 7146 7627  
Cooling Degree Days 0 5  
Month to date cooling degree days 40 63  
Year to date cooling degree days 53 83  
Since 1 June cooling degree days 40 63  
Growing Degree Days 8 (Base 50)    
Moisture  
Dew Point 53 °F    
Average Humidity 80    
Maximum Humidity 93    
Minimum Humidity 67    
Precipitation  
Precipitation 0.29 in 0.08 in 1.82 in (1944)
Month to date precipitation 2.50 1.97  
Year to date precipitation 11.02 6.67  
Sea Level Pressure  
Sea Level Pressure 29.94 in    
Wind  
Wind Speed 8 mph (North)    
Max Wind Speed 21 mph    
Max Gust Speed 24 mph    
Visibility 9 miles    
Events Rain , Thunderstorm    
T = Trace of Precipitation, MM = Missing Value Source: NWS Daily Summary

Daily Weather History Graph

Daily Weather History Graph

Search for Another Location

Airport:

Trip Planner

Search our weather history database for the weather conditions in past years. The results will help you decide how hot, cold, wet, or windy it might be!

Date:

Astronomy

Jun. 22, 2013 Rise Set
Actual Time 5:11 AM MDT 9:00 PM MDT
Civil Twilight 4:32 AM MDT 9:39 PM MDT
Nautical Twilight 3:38 AM MDT 10:32 PM MDT
Astronomical Twilight 2:22 AM MDT 11:48 PM MDT
Moon 8:13 PM MDT (6/22) 4:30 AM MDT (6/22)
Length of Visible Light 17h 07m
Length of Day
15h 48m
Waxing Gibbous, 99% of the Moon is Illuminated
Jun 22
Waxing Gibbous
Jun 23
Full
Jun 29
Last Quarter
Jul 8
New
Jul 15
First Quarter

Hourly Weather History & Observations

Time (MDT) Temp. Dew Point Humidity Pressure Visibility Wind Dir Wind Speed Gust Speed Precip Events Conditions
12:53 AM 57.9 °F 51.1 °F 78% 29.94 in 10.0 mi North 6.9 mph - N/A   Clear
1:53 AM 57.0 °F 51.1 °F 81% 29.93 in 10.0 mi North 3.5 mph - N/A   Partly Cloudy
2:53 AM 57.0 °F 51.1 °F 81% 29.93 in 10.0 mi NNE 4.6 mph - N/A   Partly Cloudy
3:53 AM 54.0 °F 51.1 °F 90% 29.91 in 10.0 mi NNW 8.1 mph - N/A   Partly Cloudy
4:53 AM 54.0 °F 50.0 °F 86% 29.91 in 10.0 mi Calm Calm - N/A   Clear
5:21 AM 53.6 °F 50.0 °F 88% 29.97 in 10.0 mi West 6.9 mph - N/A   Scattered Clouds
5:30 AM 53.6 °F 51.8 °F 94% 29.98 in 10.0 mi West 10.4 mph - N/A   Mostly Cloudy
5:53 AM 55.0 °F 51.1 °F 86% 29.96 in 10.0 mi WNW 11.5 mph - N/A   Overcast
6:53 AM 57.0 °F 51.1 °F 81% 29.97 in 10.0 mi North 12.7 mph - N/A   Overcast
7:14 AM 57.2 °F 51.8 °F 82% 30.00 in 10.0 mi ENE 8.1 mph - N/A   Overcast
7:29 AM 59.0 °F 51.8 °F 77% 30.00 in 10.0 mi NE 8.1 mph - N/A   Overcast
7:53 AM 59.0 °F 52.0 °F 78% 29.97 in 10.0 mi ENE 9.2 mph - N/A   Overcast
8:27 AM 57.2 °F 51.8 °F 82% 29.99 in 10.0 mi East 8.1 mph - N/A   Overcast
8:53 AM 61.0 °F 53.1 °F 75% 29.96 in 10.0 mi ENE 10.4 mph - N/A   Overcast
9:53 AM 63.0 °F 54.0 °F 72% 29.96 in 10.0 mi NNE 6.9 mph - N/A   Mostly Cloudy
10:53 AM 64.0 °F 53.1 °F 67% 29.94 in 10.0 mi North 10.4 mph - N/A   Overcast
11:02 AM 64.4 °F 53.6 °F 68% 29.96 in 10.0 mi NE 6.9 mph - N/A   Overcast
11:09 AM 64.4 °F 53.6 °F 68% 29.96 in 10.0 mi North 6.9 mph - N/A   Overcast
11:53 AM 63.0 °F 52.0 °F 67% 29.95 in 10.0 mi NNW 9.2 mph - N/A   Overcast
12:23 PM 60.8 °F 51.8 °F 72% 29.96 in 10.0 mi NNW 11.5 mph - 0.00 in Thunderstorm Overcast
12:53 PM 57.9 °F 53.1 °F 84% 29.94 in 10.0 mi North 17.3 mph - 0.00 in Rain , Thunderstorm Light Thunderstorms and Rain
1:00 PM 57.2 °F 53.6 °F 88% 29.94 in 10.0 mi North 15.0 mph - 0.00 in Thunderstorm Thunderstorm
1:21 PM 60.8 °F 51.8 °F 72% 29.92 in 10.0 mi NNE 13.8 mph - 0.00 in   Overcast
1:53 PM 57.0 °F 54.0 °F 89% 29.94 in 3.0 mi WNW 13.8 mph - 0.06 in Rain Heavy Rain
1:55 PM 57.2 °F 53.6 °F 88% 29.95 in 2.5 mi NW 12.7 mph - 0.02 in Rain Heavy Rain
1:59 PM 57.2 °F 53.6 °F 88% 29.96 in 1.8 mi NW 8.1 mph - 0.05 in Rain , Thunderstorm Heavy Rain
2:14 PM 57.2 °F 53.6 °F 88% 29.95 in 3.0 mi Calm Calm - 0.11 in Rain , Thunderstorm Thunderstorms and Rain
2:53 PM 57.0 °F 54.0 °F 89% 29.91 in 9.0 mi SE 6.9 mph - 0.16 in Rain Light Rain
3:53 PM 57.9 °F 54.0 °F 87% 29.90 in 10.0 mi SSW 4.6 mph - 0.02 in Rain Light Rain
4:53 PM 57.9 °F 55.0 °F 90% 29.92 in 10.0 mi NW 10.4 mph - 0.01 in Rain Light Rain
5:53 PM 57.9 °F 55.0 °F 90% 29.91 in 10.0 mi ESE 4.6 mph - 0.01 in Rain Light Rain
6:53 PM 57.9 °F 55.0 °F 90% 29.94 in 10.0 mi West 9.2 mph - 0.01 in   Mostly Cloudy
7:53 PM 59.0 °F 54.0 °F 83% 29.91 in 10.0 mi Calm Calm - 0.02 in   Scattered Clouds
8:53 PM 57.0 °F 55.0 °F 93% 29.89 in 10.0 mi SE 3.5 mph - N/A   Partly Cloudy
9:53 PM 55.9 °F 54.0 °F 93% 29.91 in 10.0 mi South 5.8 mph - N/A   Clear
10:53 PM 54.0 °F 52.0 °F 93% 29.89 in 10.0 mi WSW 6.9 mph - N/A   Clear
11:53 PM 52.0 °F 48.9 °F 89% 29.88 in 10.0 mi NW 9.2 mph - N/A   Clear